Location: ?????
(30.4569°N, 47.8921°E)
Time: 19:28:26
(UTC+00:00)

USA 32 - Pass Details

Date: 07 June 2020
Orbit: 777 x 783 km, 85.0° (Epoch: 17 June)

Event Time Altitude Azimuth Distance (km) Brightness Sun altitude
Exits shadow 01:01:14 - 197° (SSW) 2,911 6.5 -9.1°
Reaches altitude 10° 01:02:47 10° 201° (SSW) 2,319 6.0 -8.9°
Maximum altitude 01:07:48 49° 276° (W) 998 4.3 -7.9°
Drops below altitude 10° 01:12:52 10° 351° (N) 2,335 6.8 -7.0°
Sets 01:15:18 0° 356° (N) 3,267 7.7 -6.6°
